GPS BIIF-12

Last updated on Feb. 23, 2020, 4:52 a.m. UTC

1 41328U 16007A   20053.43507345 -.00000030  00000-0  00000+0 0  9996
2 41328  54.8225 181.0383 0037422 218.5253 141.1640  2.00562082 29625
UTC
Height (km)
Latitude
Longitude
Inclination
Orbital Period
UTC large
Height (km)
Speed (km/s)
/
Latitude / Longitude
Inclination (degrees)
Orbital Period (minutes)
Azimuth
Elevation
Range (km)
Doppler Factor
iOS Compass Heading
iOS Angle

Next 30 passes for location: Hong Kong

Rise time Rise Azimuth (degrees) Set time Set Azimuth (degrees) Duration Max altitude (degrees)

No matching passes for this satellites